Time,TemperatureF,DewpointF,PressureIn,WindDirection,WindDirectionDegrees,WindSpeedMPH,WindSpeedGustMPH,Humidity,HourlyPrecipIn,Conditions,Clouds,dailyrainin,SoftwareType,DateUTC
2013-06-25 00:01:00,76.8,68.7,30.18,WSW,243,3.0,5.8,76,0.00,,,-99.99,FreeWX 2.05,2013-06-25 04:01:00,
2013-06-25 00:11:00,76.3,68.5,30.18,SW,227,1.0,4.5,77,0.00,,,-99.99,FreeWX 2.05,2013-06-25 04:11:00,
2013-06-25 00:21:00,76.1,68.4,30.18,North,-999,0.0,3.1,77,0.00,,,-99.99,FreeWX 2.05,2013-06-25 04:21:00,
2013-06-25 00:31:00,76.5,69.1,30.18,North,-999,0.0,2.7,78,0.00,,,-99.99,FreeWX 2.05,2013-06-25 04:31:00,
2013-06-25 00:41:00,76.5,69.1,30.18,North,-999,0.0,2.7,78,0.00,,,-99.99,FreeWX 2.05,2013-06-25 04:41:00,
2013-06-25 00:51:00,76.6,69.6,30.15,North,-999,0.0,0.0,79,0.00,,,-99.99,FreeWX 2.05,2013-06-25 04:51:00,
2013-06-25 01:01:00,76.8,69.8,30.15,North,-999,0.0,0.0,79,0.00,,,-99.99,FreeWX 2.05,2013-06-25 05:01:00,
2013-06-25 01:11:00,76.8,69.8,30.15,North,-999,0.0,0.0,79,0.00,,,-99.99,FreeWX 2.05,2013-06-25 05:11:00,
2013-06-25 01:21:00,77.0,70.3,30.15,North,-999,0.0,0.0,80,0.00,,,-99.99,FreeWX 2.05,2013-06-25 05:21:00,
2013-06-25 01:31:00,76.8,70.2,30.15,North,-999,0.0,3.1,80,0.00,,,-99.99,FreeWX 2.05,2013-06-25 05:31:00,
2013-06-25 01:41:00,77.0,70.3,30.15,North,-999,0.0,0.0,80,0.00,,,-99.99,FreeWX 2.05,2013-06-25 05:41:00,
2013-06-25 01:51:00,77.0,70.3,30.15,North,-999,0.0,0.0,80,0.00,,,-99.99,FreeWX 2.05,2013-06-25 05:51:00,
2013-06-25 02:01:00,77.0,70.3,30.15,North,-999,0.0,0.0,80,0.00,,,-99.99,FreeWX 2.05,2013-06-25 06:01:00,
2013-06-25 02:11:00,77.0,70.3,30.15,North,-999,0.0,0.0,80,0.00,,,-99.99,FreeWX 2.05,2013-06-25 06:11:00,
2013-06-25 02:21:00,77.0,70.7,30.15,North,-999,0.0,0.0,81,0.00,,,-99.99,FreeWX 2.05,2013-06-25 06:21:00,
2013-06-25 02:31:00,77.0,70.7,30.15,North,-999,0.0,0.0,81,0.00,,,-99.99,FreeWX 2.05,2013-06-25 06:31:00,
2013-06-25 02:41:00,76.8,70.5,30.15,North,-999,0.0,0.0,81,0.00,,,-99.99,FreeWX 2.05,2013-06-25 06:41:00,
2013-06-25 02:51:00,76.8,70.9,30.12,North,-999,0.0,0.0,82,0.00,,,-99.99,FreeWX 2.05,2013-06-25 06:51:00,
2013-06-25 03:01:00,76.8,70.9,30.12,North,-999,0.0,0.0,82,0.00,,,-99.99,FreeWX 2.05,2013-06-25 07:01:00,
2013-06-25 03:11:00,76.8,70.9,30.12,North,-999,0.0,0.0,82,0.00,,,-99.99,FreeWX 2.05,2013-06-25 07:11:00,
2013-06-25 03:21:00,76.8,71.2,30.12,North,-999,0.0,0.0,83,0.00,,,-99.99,FreeWX 2.05,2013-06-25 07:21:00,
2013-06-25 03:31:00,76.8,71.2,30.12,North,-999,0.0,0.0,83,0.00,,,-99.99,FreeWX 2.05,2013-06-25 07:31:00,
2013-06-25 03:41:00,76.6,71.1,30.12,North,-999,0.0,0.0,83,0.00,,,-99.99,FreeWX 2.05,2013-06-25 07:41:00,
2013-06-25 03:51:00,76.8,71.2,30.12,North,-999,0.0,0.0,83,0.00,,,-99.99,FreeWX 2.05,2013-06-25 07:51:00,
2013-06-25 04:01:00,76.6,71.1,30.12,North,-999,0.0,0.0,83,0.00,,,-99.99,FreeWX 2.05,2013-06-25 08:01:00,
2013-06-25 04:11:00,76.5,70.9,30.12,North,-999,0.0,0.0,83,0.00,,,-99.99,FreeWX 2.05,2013-06-25 08:11:00,
2013-06-25 04:21:00,76.3,70.7,30.12,North,-999,0.0,0.0,83,0.00,,,-99.99,FreeWX 2.05,2013-06-25 08:21:00,
2013-06-25 04:31:00,76.3,70.7,30.12,North,-999,0.0,0.0,83,0.00,,,-99.99,FreeWX 2.05,2013-06-25 08:31:00,
2013-06-25 04:41:00,76.3,71.1,30.09,North,-999,0.0,0.0,84,0.00,,,-99.99,FreeWX 2.05,2013-06-25 08:41:00,
2013-06-25 04:51:00,76.3,71.1,30.12,North,-999,0.0,0.0,84,0.00,,,-99.99,FreeWX 2.05,2013-06-25 08:51:00,
2013-06-25 05:01:00,76.1,70.9,30.12,North,-999,0.0,0.0,84,0.00,,,-99.99,FreeWX 2.05,2013-06-25 09:01:00,
2013-06-25 05:11:00,76.1,70.9,30.12,North,-999,0.0,0.0,84,0.00,,,-99.99,FreeWX 2.05,2013-06-25 09:11:00,
2013-06-25 05:21:00,76.1,70.9,30.12,North,-999,0.0,0.0,84,0.00,,,-99.99,FreeWX 2.05,2013-06-25 09:21:00,
2013-06-25 05:31:00,75.9,70.7,30.12,North,-999,0.0,0.0,84,0.00,,,-99.99,FreeWX 2.05,2013-06-25 09:31:00,
2013-06-25 05:41:00,75.7,70.5,30.12,North,-999,0.0,0.0,84,0.00,,,-99.99,FreeWX 2.05,2013-06-25 09:41:00,
2013-06-25 05:51:00,75.7,70.9,30.12,North,-999,0.0,0.0,85,0.00,,,-99.99,FreeWX 2.05,2013-06-25 09:51:00,
2013-06-25 06:01:00,75.7,70.9,30.12,North,-999,0.0,0.0,85,0.00,,,-99.99,FreeWX 2.05,2013-06-25 10:01:00,
2013-06-25 06:11:00,75.6,70.7,30.12,North,-999,0.0,0.0,85,0.00,,,-99.99,FreeWX 2.05,2013-06-25 10:11:00,
2013-06-25 06:21:00,75.6,70.7,30.12,North,-999,0.0,0.0,85,0.00,,,-99.99,FreeWX 2.05,2013-06-25 10:21:00,
2013-06-25 06:31:00,75.6,70.7,30.12,North,-999,0.0,0.0,85,0.00,,,-99.99,FreeWX 2.05,2013-06-25 10:31:00,
2013-06-25 06:41:00,75.6,70.7,30.12,North,-999,0.0,0.0,85,0.00,,,-99.99,FreeWX 2.05,2013-06-25 10:41:00,
2013-06-25 06:51:00,75.6,70.7,30.12,North,-999,0.0,0.0,85,0.00,,,-99.99,FreeWX 2.05,2013-06-25 10:51:00,
2013-06-25 07:01:00,75.4,70.5,30.12,North,-999,0.0,0.0,85,0.00,,,-99.99,FreeWX 2.05,2013-06-25 11:01:00,
2013-06-25 07:11:00,75.6,70.7,30.12,North,-999,0.0,0.0,85,0.00,,,-99.99,FreeWX 2.05,2013-06-25 11:11:00,
2013-06-25 07:21:00,75.7,71.2,30.12,North,-999,0.0,0.0,86,0.00,,,-99.99,FreeWX 2.05,2013-06-25 11:21:00,
2013-06-25 07:31:00,76.1,71.6,30.12,North,-999,0.0,0.0,86,0.00,,,-99.99,FreeWX 2.05,2013-06-25 11:31:00,
2013-06-25 07:41:00,76.6,72.5,30.12,North,-999,0.0,0.0,87,0.00,,,-99.99,FreeWX 2.05,2013-06-25 11:41:00,
2013-06-25 07:51:00,77.2,73.0,30.15,North,-999,0.0,0.0,87,0.00,,,-99.99,FreeWX 2.05,2013-06-25 11:51:00,
2013-06-25 08:01:00,77.4,73.2,30.15,North,-999,0.0,0.0,87,0.00,,,-99.99,FreeWX 2.05,2013-06-25 12:01:00,
2013-06-25 08:11:00,77.9,74.1,30.15,North,-999,0.0,0.0,88,0.00,,,-99.99,FreeWX 2.05,2013-06-25 12:11:00,
2013-06-25 08:21:00,77.9,74.1,30.15,North,-999,0.0,3.6,88,0.00,,,-99.99,FreeWX 2.05,2013-06-25 12:21:00,
2013-06-25 08:31:00,77.9,74.1,30.15,North,-999,0.0,3.6,88,0.00,,,-99.99,FreeWX 2.05,2013-06-25 12:31:00,
2013-06-25 08:41:00,78.3,74.5,30.15,SW,219,1.0,4.5,88,0.00,,,-99.99,FreeWX 2.05,2013-06-25 12:41:00,
2013-06-25 08:51:00,79.0,75.4,30.15,North,-999,0.0,3.1,89,0.00,,,-99.99,FreeWX 2.05,2013-06-25 12:51:00,
2013-06-25 09:01:00,79.2,75.6,30.15,SW,236,1.0,4.0,89,0.00,,,-99.99,FreeWX 2.05,2013-06-25 13:01:00,
2013-06-25 09:11:00,79.5,75.9,30.15,SW,236,1.0,3.6,89,0.00,,,-99.99,FreeWX 2.05,2013-06-25 13:11:00,
2013-06-25 09:21:00,79.7,75.7,30.15,SW,236,1.0,3.6,88,0.00,,,-99.99,FreeWX 2.05,2013-06-25 13:21:00,
2013-06-25 09:31:00,80.1,75.7,30.15,West,267,2.0,4.0,87,0.00,,,-99.99,FreeWX 2.05,2013-06-25 13:31:00,
2013-06-25 09:41:00,80.4,75.2,30.15,West,259,2.0,4.0,84,0.00,,,-99.99,FreeWX 2.05,2013-06-25 13:41:00,
2013-06-25 09:51:00,80.6,72.0,30.15,WSW,239,2.0,4.5,75,0.00,,,-99.99,FreeWX 2.05,2013-06-25 13:51:00,
2013-06-25 10:01:00,81.3,71.8,30.15,North,-999,0.0,3.6,73,0.00,,,-99.99,FreeWX 2.05,2013-06-25 14:01:00,
2013-06-25 10:11:00,81.9,69.8,30.15,SW,221,1.0,5.4,67,0.00,,,-99.99,FreeWX 2.05,2013-06-25 14:11:00,
2013-06-25 10:21:00,82.4,69.4,30.15,West,261,1.0,4.5,65,0.00,,,-99.99,FreeWX 2.05,2013-06-25 14:21:00,
2013-06-25 10:31:00,82.8,66.9,30.15,SW,234,2.0,5.8,59,0.00,,,-99.99,FreeWX 2.05,2013-06-25 14:31:00,
2013-06-25 10:41:00,83.1,65.3,30.18,WSW,252,2.0,4.9,55,0.00,,,-99.99,FreeWX 2.05,2013-06-25 14:41:00,
2013-06-25 10:51:00,83.3,62.6,30.15,WSW,241,2.0,4.9,50,0.00,,,-99.99,FreeWX 2.05,2013-06-25 14:51:00,
2013-06-25 11:01:00,83.8,62.6,30.15,West,266,2.0,4.5,49,0.00,,,-99.99,FreeWX 2.05,2013-06-25 15:01:00,
2013-06-25 11:11:00,84.0,60.4,30.15,WSW,249,2.0,4.9,45,0.00,,,-99.99,FreeWX 2.05,2013-06-25 15:11:00,
2013-06-25 11:21:00,84.4,58.8,30.18,North,-999,0.0,4.5,42,0.00,,,-99.99,FreeWX 2.05,2013-06-25 15:21:00,
2013-06-25 11:31:00,84.7,57.7,30.18,North,-999,0.0,4.0,40,0.00,,,-99.99,FreeWX 2.05,2013-06-25 15:31:00,
2013-06-25 11:41:00,85.1,54.3,30.15,North,-999,0.0,4.9,35,0.00,,,-99.99,FreeWX 2.05,2013-06-25 15:41:00,
2013-06-25 11:51:00,85.6,52.3,30.18,WSW,250,1.0,4.9,32,0.00,,,-99.99,FreeWX 2.05,2013-06-25 15:51:00,
2013-06-25 12:01:00,85.8,49.8,30.18,West,262,2.0,4.9,29,0.00,,,-99.99,FreeWX 2.05,2013-06-25 16:01:00,
2013-06-25 12:11:00,86.2,49.3,30.18,West,273,2.0,4.5,28,0.00,,,-99.99,FreeWX 2.05,2013-06-25 16:11:00,
2013-06-25 12:21:00,86.7,49.6,30.15,WSW,256,2.0,4.9,28,0.00,,,-99.99,FreeWX 2.05,2013-06-25 16:21:00,
2013-06-25 12:31:00,87.1,50.0,30.15,WSW,248,2.0,4.5,28,0.00,,,-99.99,FreeWX 2.05,2013-06-25 16:31:00,
2013-06-25 12:41:00,87.6,50.4,30.15,West,259,2.0,4.9,28,0.00,,,-99.99,FreeWX 2.05,2013-06-25 16:41:00,
2013-06-25 12:51:00,88.0,49.8,30.15,WSW,246,2.0,4.5,27,0.00,,,-99.99,FreeWX 2.05,2013-06-25 16:51:00,
2013-06-25 13:01:00,88.5,51.3,30.15,WSW,253,2.0,4.9,28,0.00,,,-99.99,FreeWX 2.05,2013-06-25 17:01:00,
2013-06-25 13:11:00,88.7,49.3,30.15,WSW,257,2.0,4.9,26,0.00,,,-99.99,FreeWX 2.05,2013-06-25 17:11:00,
2013-06-25 13:21:00,88.9,49.5,30.15,West,261,2.0,4.5,26,0.00,,,-99.99,FreeWX 2.05,2013-06-25 17:21:00,
2013-06-25 13:31:00,89.1,48.6,30.15,WSW,243,1.0,5.8,25,0.00,,,-99.99,FreeWX 2.05,2013-06-25 17:31:00,
2013-06-25 13:41:00,89.2,47.7,30.12,WSW,252,2.0,4.0,24,0.00,,,-99.99,FreeWX 2.05,2013-06-25 17:41:00,
2013-06-25 13:51:00,89.6,50.2,30.12,West,272,2.0,5.4,26,0.00,,,-99.99,FreeWX 2.05,2013-06-25 17:51:00,
2013-06-25 14:01:00,89.6,49.1,30.12,WSW,257,2.0,4.5,25,0.00,,,-99.99,FreeWX 2.05,2013-06-25 18:01:00,
2013-06-25 14:11:00,89.6,46.9,30.12,WSW,241,2.0,4.5,23,0.00,,,-99.99,FreeWX 2.05,2013-06-25 18:11:00,
2013-06-25 14:21:00,89.6,45.7,30.12,West,275,2.0,5.4,22,0.00,,,-99.99,FreeWX 2.05,2013-06-25 18:21:00,
2013-06-25 14:31:00,90.0,46.0,30.12,West,281,2.0,4.9,22,0.00,,,-99.99,FreeWX 2.05,2013-06-25 18:31:00,
2013-06-25 14:41:00,90.5,46.4,30.12,West,279,3.0,6.3,22,0.00,,,-99.99,FreeWX 2.05,2013-06-25 18:41:00,
2013-06-25 14:51:00,90.5,45.1,30.12,West,263,3.0,4.9,21,0.00,,,-99.99,FreeWX 2.05,2013-06-25 18:51:00,
2013-06-25 15:01:00,90.7,45.3,30.12,West,263,2.0,4.5,21,0.00,,,-99.99,FreeWX 2.05,2013-06-25 19:01:00,
2013-06-25 15:11:00,91.0,45.7,30.12,West,271,2.0,5.8,21,0.00,,,-99.99,FreeWX 2.05,2013-06-25 19:11:00,
2013-06-25 15:21:00,91.2,44.4,30.09,WSW,254,2.0,5.8,20,0.00,,,-99.99,FreeWX 2.05,2013-06-25 19:21:00,
2013-06-25 15:31:00,91.2,44.4,30.09,WSW,245,2.0,4.9,20,0.00,,,-99.99,FreeWX 2.05,2013-06-25 19:31:00,
2013-06-25 15:41:00,90.3,43.7,30.09,WSW,246,1.0,4.5,20,0.00,,,-99.99,FreeWX 2.05,2013-06-25 19:41:00,
2013-06-25 15:51:00,90.1,50.5,30.09,East,79,1.0,5.8,26,0.00,,,-99.99,FreeWX 2.05,2013-06-25 19:51:00,
2013-06-25 16:01:00,89.1,50.7,30.09,ESE,122,1.0,5.8,27,0.00,,,-99.99,FreeWX 2.05,2013-06-25 20:01:00,
2013-06-25 16:11:00,89.4,52.9,30.09,South,185,2.0,6.3,29,0.00,,,-99.99,FreeWX 2.05,2013-06-25 20:11:00,
2013-06-25 16:21:00,90.0,53.4,30.09,SE,125,3.0,6.9,29,0.00,,,-99.99,FreeWX 2.05,2013-06-25 20:21:00,
2013-06-25 16:31:00,90.0,52.5,30.09,SE,142,2.0,6.3,28,0.00,,,-99.99,FreeWX 2.05,2013-06-25 20:31:00,
2013-06-25 16:41:00,90.1,52.5,30.06,SSE,149,3.0,8.7,28,0.00,,,-99.99,FreeWX 2.05,2013-06-25 20:41:00,
2013-06-25 16:51:00,89.8,52.3,30.06,SSW,192,1.0,4.9,28,0.00,,,-99.99,FreeWX 2.05,2013-06-25 20:51:00,
2013-06-25 17:01:00,89.6,52.2,30.06,South,180,2.0,6.3,28,0.00,,,-99.99,FreeWX 2.05,2013-06-25 21:01:00,
2013-06-25 17:11:00,89.8,52.3,30.06,SE,138,2.0,6.3,28,0.00,,,-99.99,FreeWX 2.05,2013-06-25 21:11:00,
2013-06-25 17:21:00,89.6,52.2,30.06,South,180,2.0,6.7,28,0.00,,,-99.99,FreeWX 2.05,2013-06-25 21:21:00,
2013-06-25 17:31:00,89.2,51.8,30.06,SSE,160,3.0,9.6,28,0.00,,,-99.99,FreeWX 2.05,2013-06-25 21:31:00,
2013-06-25 17:41:00,88.7,51.4,30.06,South,174,3.0,7.4,28,0.00,,,-99.99,FreeWX 2.05,2013-06-25 21:41:00,
2013-06-25 17:51:00,88.5,51.3,30.06,SSE,155,3.0,7.8,28,0.00,,,-99.99,FreeWX 2.05,2013-06-25 21:51:00,
2013-06-25 18:01:00,88.3,51.1,30.06,SSE,147,2.0,8.3,28,0.00,,,-99.99,FreeWX 2.05,2013-06-25 22:01:00,
2013-06-25 18:11:00,88.3,51.1,30.06,SE,142,2.0,6.9,28,0.00,,,-99.99,FreeWX 2.05,2013-06-25 22:11:00,
2013-06-25 18:22:00,88.0,50.7,30.06,SSE,153,1.0,4.9,28,0.00,,,-99.99,FreeWX 2.05,2013-06-25 22:22:00,
2013-06-25 18:32:00,87.6,50.4,30.06,SE,137,3.0,6.9,28,0.00,,,-99.99,FreeWX 2.05,2013-06-25 22:32:00,
2013-06-25 18:42:00,87.6,51.4,30.06,ESE,109,2.0,6.7,29,0.00,,,-99.99,FreeWX 2.05,2013-06-25 22:42:00,
2013-06-25 18:52:00,87.3,51.1,30.06,SE,129,2.0,7.8,29,0.00,,,-99.99,FreeWX 2.05,2013-06-25 22:52:00,
2013-06-25 19:02:00,87.1,51.8,30.06,SE,137,2.0,5.8,30,0.00,,,-99.99,FreeWX 2.05,2013-06-25 23:02:00,
2013-06-25 19:12:00,87.1,51.8,30.06,SE,136,2.0,7.4,30,0.00,,,-99.99,FreeWX 2.05,2013-06-25 23:12:00,
2013-06-25 19:22:00,86.7,52.3,30.06,SSE,148,2.0,6.7,31,0.00,,,-99.99,FreeWX 2.05,2013-06-25 23:22:00,
2013-06-25 19:32:00,86.4,52.2,30.06,SSE,156,2.0,7.4,31,0.00,,,-99.99,FreeWX 2.05,2013-06-25 23:32:00,
2013-06-25 19:42:00,85.8,51.6,30.06,SSE,165,2.0,5.8,31,0.00,,,-99.99,FreeWX 2.05,2013-06-25 23:42:00,
2013-06-25 19:52:00,85.6,51.4,30.06,SE,142,2.0,6.7,31,0.00,,,-99.99,FreeWX 2.05,2013-06-25 23:52:00,
2013-06-25 20:02:00,85.3,52.0,30.06,SE,134,2.0,6.9,32,0.00,,,-99.99,FreeWX 2.05,2013-06-26 00:02:00,
2013-06-25 20:12:00,84.9,52.5,30.06,South,175,1.0,5.8,33,0.00,,,-99.99,FreeWX 2.05,2013-06-26 00:12:00,
2013-06-25 20:22:00,84.7,52.3,30.06,South,169,1.0,6.9,33,0.00,,,-99.99,FreeWX 2.05,2013-06-26 00:22:00,
2013-06-25 20:32:00,84.4,52.2,30.06,South,180,1.0,6.7,33,0.00,,,-99.99,FreeWX 2.05,2013-06-26 00:32:00,
2013-06-25 20:42:00,84.4,52.9,30.06,North,-999,0.0,5.4,34,0.00,,,-99.99,FreeWX 2.05,2013-06-26 00:42:00,
2013-06-25 20:52:00,84.0,52.5,30.06,North,-999,0.0,6.3,34,0.00,,,-99.99,FreeWX 2.05,2013-06-26 00:52:00,
2013-06-25 21:02:00,84.0,53.4,30.06,SSW,207,1.0,5.4,35,0.00,,,-99.99,FreeWX 2.05,2013-06-26 01:02:00,
2013-06-25 21:12:00,83.8,53.2,30.09,North,-999,0.0,4.0,35,0.00,,,-99.99,FreeWX 2.05,2013-06-26 01:12:00,
2013-06-25 21:22:00,83.7,53.8,30.09,North,-999,0.0,2.7,36,0.00,,,-99.99,FreeWX 2.05,2013-06-26 01:22:00,
2013-06-25 21:32:00,83.8,54.0,30.09,North,-999,0.0,6.3,36,0.00,,,-99.99,FreeWX 2.05,2013-06-26 01:32:00,
2013-06-25 21:42:00,82.8,50.7,30.09,WNW,284,2.0,6.3,33,0.00,,,-99.99,FreeWX 2.05,2013-06-26 01:42:00,
2013-06-25 21:52:00,79.5,49.5,30.12,West,267,5.0,8.3,35,0.00,,,-99.99,FreeWX 2.05,2013-06-26 01:52:00,
2013-06-25 22:02:00,77.5,53.2,30.12,West,267,3.0,7.4,43,0.00,,,-99.99,FreeWX 2.05,2013-06-26 02:02:00,
2013-06-25 22:12:00,75.4,55.9,30.12,West,261,2.0,6.7,51,0.00,,,-99.99,FreeWX 2.05,2013-06-26 02:12:00,
2013-06-25 22:22:00,74.5,61.0,30.12,WSW,255,2.0,5.4,63,0.00,,,-99.99,FreeWX 2.05,2013-06-26 02:22:00,
2013-06-25 22:32:00,74.7,61.7,30.12,North,-999,0.0,3.1,64,0.00,,,-99.99,FreeWX 2.05,2013-06-26 02:32:00,
2013-06-25 22:42:00,74.7,62.6,30.12,North,-999,0.0,0.0,66,0.00,,,-99.99,FreeWX 2.05,2013-06-26 02:42:00,
2013-06-25 22:52:00,75.2,63.0,30.12,North,-999,0.0,0.0,66,0.00,,,-99.99,FreeWX 2.05,2013-06-26 02:52:00,
2013-06-25 23:02:00,75.6,63.9,30.12,North,-999,0.0,0.0,67,0.00,,,-99.99,FreeWX 2.05,2013-06-26 03:02:00,
2013-06-25 23:12:00,76.1,64.4,30.12,North,-999,0.0,3.1,67,0.00,,,-99.99,FreeWX 2.05,2013-06-26 03:12:00,
2013-06-25 23:22:00,76.1,64.4,30.12,North,-999,0.0,0.0,67,0.00,,,-99.99,FreeWX 2.05,2013-06-26 03:22:00,
2013-06-25 23:32:00,76.3,64.6,30.12,North,-999,0.0,0.0,67,0.00,,,-99.99,FreeWX 2.05,2013-06-26 03:32:00,
2013-06-25 23:42:00,76.5,65.1,30.09,North,-999,0.0,0.0,68,0.00,,,-99.99,FreeWX 2.05,2013-06-26 03:42:00,
2013-06-25 23:52:00,76.6,65.3,30.09,North,-999,0.0,0.0,68,0.00,,,-99.99,FreeWX 2.05,2013-06-26 03:52:00,